{"data":{"norad_id":60407,"epoch":"2026-09-21T22:00:03.000096Z","epoch_age_seconds":63176,"freshness":"FRESH","line1":"1 60407U 24141K   26264.91670139 -.00128390  00000+0 -10691-2 0  9998","line2":"2 60407  53.1570 199.0568 0001332 102.7941 156.9509 15.69759884  5980","mean_motion":15.69759884,"eccentricity":0.0001332,"inclination_deg":53.157,"raan_deg":199.0568,"arg_perigee_deg":102.7941,"mean_anomaly_deg":156.9509,"bstar":-0.0010691,"rev_number":598,"period_min":91.733774998164,"perigee_km":358.68654084871,"apogee_km":360.48146972452,"semimajor_km":6737.7210052866,"source":"CELESTRAK","updated_at":"2026-09-22T09:00:49.230572Z"}}